Tracking 22879 objects as of 20-Apr-2021
HD Live streaming from Space Station
objects crossing your sky now

FALCON 9 DEB


FALCON 9 DEB is no longer on orbit


NORAD ID: 45239
Int'l Code: 2020-012BP
Perigee: N/A
Apogee: N/A
Inclination: N/A
Period: N/A
Semi major axis: N/A
RCS: N/A
Launch date: February 17, 2020
Source: United States (US)
Launch site: AIR FORCE EASTERN TEST RANGE (AFETR)
Decay date: 2020-03-21

Note: This is SATELLITE DEBRIS
aabbcc
Your satellite tracking list
Your tracking list is empty




NASA's NSSDC Master Catalog

Two Line Element Set (TLE):
1 45239U 20012BP  20081.23270180  .08424214  12270-4  29403-3 0  9994
2 45239  52.9876 100.4487 0012151 159.4821 200.6717 16.43346257  5566
Source of the keplerian elements: AFSPC